Patterson, LA

3:06 PM CST on November 22, 2019 (GMT -0600)
Williams Memorial

Weather History for KPTN - September, 2019

Change the Weather History Date:

Sunday, September 29, 2019

  Actual Average Record
Temperature  
Mean Temperature 80 °F -  
Max Temperature 88 °F 81 °F 98 °F (1998)
Min Temperature 73 °F 64 °F 53 °F (1996)
Cooling Degree Days 16    
Growing Degree Days 30 (Base 50)    
Moisture  
Dew Point 76 °F    
Average Humidity 88    
Maximum Humidity 100    
Minimum Humidity 65    
Precipitation  
Precipitation 0.02 in - - ()
Sea Level Pressure  
Sea Level Pressure 30.07 in    
Wind  
Wind Speed 4 mph (East)    
Max Wind Speed 9 mph    
Max Gust Speed -    
Visibility 10 miles    
Events Rain    
Averages and records for this station are not official NWS values.
T = Trace of Precipitation, MM = Missing Value Source: NWS Daily Summary

Daily Weather History Graph

Daily Weather History Graph

Search for Another Location

Airport or City:

Astronomy

Sep. 29, 2019 Rise Set
Actual Time 6:57 AM CDT 6:53 PM CDT
Civil Twilight 6:33 AM CDT 7:17 PM CDT
Nautical Twilight 6:05 AM CDT 7:44 PM CDT
Astronomical Twilight 5:38 AM CDT 8:12 PM CDT
Moon 7:48 AM CDT (9/29) 7:57 PM CDT (9/29)
Length of Visible Light 12h 43m
Length of Day
11h 56m
New Moon, 1% of the Moon is Illuminated
Sep 29
New Moon
Oct 5
First Quarter
Oct 13
Full
Oct 21
Last Quarter
Oct 27
New

Hourly Weather History & Observations

Time (CDT) Temp. Heat Index Dew Point Humidity Pressure Visibility Wind Dir Wind Speed Gust Speed Precip Events Conditions
12:56 AM 75.0 °F - 73.0 °F 94% 30.05 in 10.0 mi Calm Calm - N/A   Clear
1:56 AM 75.0 °F - 73.0 °F 94% 30.05 in 10.0 mi East 3.5 mph - N/A   Partly Cloudy
2:56 AM 75.9 °F - 73.9 °F 94% 30.04 in 10.0 mi East 3.5 mph - N/A   Clear
3:56 AM 75.0 °F - 73.9 °F 96% 30.04 in 10.0 mi Calm Calm - N/A   Clear
4:56 AM 73.9 °F - 73.0 °F 97% 30.05 in 10.0 mi ENE 4.6 mph - N/A   Clear
5:56 AM 73.9 °F - 73.0 °F 97% 30.06 in 10.0 mi ENE 3.5 mph - N/A   Clear
6:56 AM 73.9 °F - 73.9 °F 100% 30.08 in 10.0 mi ENE 3.5 mph - N/A   Partly Cloudy
7:56 AM 77.0 °F - 75.9 °F 96% 30.09 in 10.0 mi East 4.6 mph - N/A   Clear
8:56 AM 82.9 °F 92.8 °F 78.1 °F 85% 30.10 in 10.0 mi East 8.1 mph - N/A   Clear
9:51 AM 84.2 °F 96.1 °F 78.8 °F 84% 30.10 in 10.0 mi East 6.9 mph - N/A   Mostly Cloudy
9:56 AM 84.0 °F 94.8 °F 78.1 °F 82% 30.11 in 10.0 mi East 8.1 mph - N/A   Overcast
10:56 AM 84.9 °F 95.3 °F 77.0 °F 77% 30.12 in 10.0 mi SE 8.1 mph - N/A   Overcast
11:56 AM 82.0 °F 91.6 °F 79.0 °F 90% 30.11 in 10.0 mi SE 5.8 mph - 0.02 in Rain Light Rain
12:56 PM 87.1 °F 98.8 °F 77.0 °F 72% 30.09 in 10.0 mi Variable 6.9 mph - 0.00 in   Overcast
1:15 PM 87.8 °F 99.7 °F 77.0 °F 70% 30.08 in 10.0 mi ESE 8.1 mph - N/A   Mostly Cloudy
2:56 PM 88.0 °F 97.5 °F 75.0 °F 65% 30.05 in 10.0 mi ESE 6.9 mph - N/A   Scattered Clouds
4:56 PM 80.1 °F 85.4 °F 75.9 °F 87% 30.04 in 10.0 mi East 6.9 mph - 0.00 in Rain Light Rain
5:56 PM 82.9 °F 91.8 °F 77.0 °F 82% 30.05 in 10.0 mi ENE 3.5 mph - 0.00 in   Overcast
6:17 PM 82.4 °F 92.4 °F 78.8 °F 89% 30.05 in 10.0 mi East 9.2 mph - N/A   Overcast
6:52 PM 80.6 °F 87.1 °F 77.0 °F 89% 30.05 in 10.0 mi East 6.9 mph - N/A   Scattered Clouds
6:56 PM 81.0 °F 87.9 °F 77.0 °F 88% 30.05 in 10.0 mi East 5.8 mph - N/A   Partly Cloudy
7:56 PM 80.1 °F 85.4 °F 75.9 °F 87% 30.06 in 10.0 mi East 4.6 mph - N/A   Clear
8:56 PM 79.0 °F - 75.9 °F 90% 30.07 in 10.0 mi East 5.8 mph - N/A   Mostly Cloudy
9:56 PM 79.0 °F - 75.9 °F 90% 30.09 in 10.0 mi East 4.6 mph - N/A   Mostly Cloudy
10:10 PM 78.8 °F - 75.2 °F 89% 30.09 in 10.0 mi East 4.6 mph - N/A   Scattered Clouds
10:56 PM 79.0 °F - 77.0 °F 94% 30.10 in 10.0 mi East 5.8 mph - N/A   Scattered Clouds
11:56 PM 78.1 °F - 75.9 °F 93% 30.10 in 10.0 mi East 4.6 mph - N/A   Clear